Home > Time Zones > World Clock > Weather > Spain > Cadiz > Past weeks

Flag for Spain Weather past 2 weeks in Cadiz, Cádiz, Spain

Now
64 °F

Fog.


Feels Like: 64 °F
Forecast: 69 / 78 °F
Wind: 2 mph from North

Location: Rota Airport

Current Time: Jul 25, 2014 at 9:01:16 AM

Latest Report: Jul 25, 2014 at 8:00 AM


Visibility: 3 mi

Pressure: 29.86 "Hg

Humidity: 94%

Dew point: 63 °F

Location of CadizLocation

Historic Weather in Cadiz — Graph

°F

Cadiz temperature yesterday

Maximum temperature yesterday: 77 °F (at 4:00 PM)
Minimum temperature yesterday: 68 °F (at 8:00 AM)
Average temperature yesterday: 73 °F

Past Weeks' High & Low Weather Summary

 TemperatureHumidityPressure
High93 °F (Jul 16, 1:00 PM)100% (Jul 14, 5:00 AM)30.09 "Hg (Jul 14, 5:00 AM)
Low61 °F (Jul 21, 7:00 AM)29% (Jul 22, 11:00 AM)29.83 "Hg (Jul 24, 8:00 PM)
Average74 °F72%29.98 "Hg
* Reported Jul 10 7:00 AM — Jul 25 7:00 AM, Cadiz, Weather by CustomWeather, © 2014

Note: Actual official high and low records may vary slightly from our data, if they occured in-between our weather recording intervals... More about our weather records

Advertising

Cadiz weather history for previous 24 hours

 ConditionsComfort  
Time TempWeatherWind HumidityBarometerVisibility
7:00 AM
Jul 25
64 °FClear.2 mph94%29.86 "Hg5 mi
6:00 AM70 °FClear.1 mph88%29.86 "Hg10 mi
5:00 AM66 °FClear.2 mph88%29.83 "Hg10 mi
4:00 AM64 °FClear.1 mph88%29.86 "Hg10 mi
3:00 AM70 °FClear.No wind78%29.86 "Hg10 mi
2:00 AM70 °FClear.3 mph83%29.86 "Hg10 mi
1:00 AM72 °FClear.2 mph83%29.89 "Hg10 mi
12:00 AM73 °FClear.7 mph78%29.86 "Hg10 mi
11:00 PM
Jul 24
73 °FClear.6 mph74%29.86 "Hg10 mi
10:00 PM73 °FSunny.8 mph74%29.86 "Hg10 mi
9:00 PM75 °FPassing clouds.10 mph65%29.86 "HgN/A
8:00 PM75 °FPassing clouds.15 mph69%29.83 "HgN/A
7:00 PM75 °FSunny.15 mph69%29.86 "Hg10 mi
6:00 PM75 °FSunny.15 mph65%29.86 "Hg10 mi
5:00 PM77 °FSunny.16 mph65%29.86 "Hg10 mi
4:00 PM77 °FPassing clouds.15 mph57%29.89 "HgN/A
3:00 PM75 °FPassing clouds.14 mph61%29.89 "HgN/A
2:00 PM75 °FPassing clouds.12 mph61%29.89 "HgN/A
1:00 PM73 °FPassing clouds.9 mph65%29.92 "HgN/A
12:00 PM73 °FPassing clouds.8 mph61%29.92 "HgN/A
11:00 AM72 °FPassing clouds.7 mph69%29.89 "HgN/A
10:00 AM72 °FPassing clouds.7 mph69%29.89 "HgN/A
9:00 AM70 °FPassing clouds.10 mph73%29.89 "HgN/A
Weather by CustomWeather, © 2014

See weather overviewHow to use our weather pages